When you browse on this site, cookies collect data to enhance your experience and personalize the content and advertising you see.
Visit our Privacy Policy to learn more. By continuing to use the site, you agree to this use of cookies and data.
  • In Hungary
  • List of Countries
  • For 7 days
  • Water Temperature
  • Weather Map
  • News
  • Weather Widgets
  • user-avatar
    Login

    Hourly Weather Aydarovo

    Today, 19 October, Saturday

    Time Temperature Precipitation Wind Pressure Humidity
    00:00 +4°C° 0 mm 3 mps 748 mmHg 89%
    01:00 +4°C° 0 mm 3 mps 749 mmHg 89%
    02:00 +4°C° 0 mm 3 mps 749 mmHg 88%
    03:00 +3°C° 0 mm 3 mps 750 mmHg 90%
    04:00 +3°C° 0.1 mm 3 mps 750 mmHg 89%
    05:00 +3°C° 0.1 mm 3 mps 750 mmHg 89%
    06:00 +3°C° 0.1 mm 3 mps 751 mmHg 89%
    07:00 +3°C° 0 mm 3 mps 751 mmHg 88%
    08:00 +2°C° 0 mm 3 mps 752 mmHg 87%
    09:00 +2°C° 0 mm 3 mps 753 mmHg 87%
    10:00 +3°C° 0 mm 3 mps 753 mmHg 85%
    11:00 +3°C° 0 mm 3 mps 753 mmHg 84%
    12:00 +3°C° 0 mm 3 mps 753 mmHg 82%
    13:00 +3°C° 0 mm 3 mps 754 mmHg 81%
    14:00 +3°C° 0 mm 3 mps 754 mmHg 80%
    15:00 +3°C° 0 mm 3 mps 754 mmHg 79%
    16:00 +4°C° 0 mm 2 mps 755 mmHg 80%
    17:00 +3°C° 0 mm 2 mps 755 mmHg 82%
    18:00 +3°C° 0 mm 2 mps 755 mmHg 84%
    19:00 +2°C° 0 mm 2 mps 755 mmHg 85%
    20:00 +2°C° 0 mm 2 mps 755 mmHg 85%
    21:00 +2°C° 0 mm 2 mps 756 mmHg 86%
    22:00 +1°C° 0 mm 2 mps 756 mmHg 86%
    23:00 +1°C° 0 mm 2 mps 756 mmHg 87%

    Tomorrow, 20 October, Sunday

    Time Temperature Precipitation Wind Pressure Humidity
    00:00 +1°C° 0 mm 2 mps 755 mmHg 87%
    01:00 +1°C° 0 mm 2 mps 756 mmHg 87%
    02:00 +1°C° 0 mm 2 mps 756 mmHg 87%
    03:00 +1°C° 0 mm 2 mps 756 mmHg 87%
    04:00 +1°C° 0 mm 2 mps 756 mmHg 86%
    05:00 +1°C° 0 mm 2 mps 756 mmHg 86%
    06:00 +1°C° 0 mm 2 mps 756 mmHg 86%
    07:00 +1°C° 0 mm 3 mps 756 mmHg 84%
    08:00 +1°C° 0 mm 3 mps 756 mmHg 82%
    09:00 +2°C° 0 mm 3 mps 756 mmHg 80%
    10:00 +3°C° 0 mm 3 mps 756 mmHg 79%
    11:00 +4°C° 0 mm 4 mps 755 mmHg 78%
    12:00 +5°C° 0 mm 4 mps 755 mmHg 77%
    13:00 +6°C° 0 mm 4 mps 755 mmHg 77%
    14:00 +6°C° 0 mm 4 mps 755 mmHg 78%
    15:00 +7°C° 0 mm 5 mps 755 mmHg 79%
    16:00 +7°C° 0 mm 5 mps 755 mmHg 81%
    17:00 +6°C° 0 mm 4 mps 755 mmHg 83%
    18:00 +6°C° 0 mm 4 mps 754 mmHg 85%
    19:00 +7°C° 0.1 mm 4 mps 754 mmHg 87%
    20:00 +7°C° 0.1 mm 4 mps 754 mmHg 89%
    21:00 +7°C° 0.1 mm 4 mps 754 mmHg 91%
    22:00 +7°C° 0.2 mm 4 mps 754 mmHg 92%
    23:00 +7°C° 0.2 mm 4 mps 754 mmHg 93%

    Day after tomorrow, 21 October, Monday

    Time Temperature Precipitation Wind Pressure Humidity
    00:00 +7°C° 0.2 mm 4 mps 754 mmHg 94%
    01:00 +7°C° 0.1 mm 4 mps 754 mmHg 94%
    02:00 +8°C° 0.1 mm 4 mps 754 mmHg 95%
    03:00 +8°C° 0.1 mm 4 mps 754 mmHg 95%
    04:00 +8°C° 0.3 mm 4 mps 754 mmHg 95%
    05:00 +9°C° 0.3 mm 3 mps 754 mmHg 95%
    06:00 +9°C° 0.3 mm 3 mps 754 mmHg 95%
    07:00 +8°C° 0.2 mm 4 mps 754 mmHg 93%
    08:00 +8°C° 0.2 mm 4 mps 753 mmHg 91%
    09:00 +8°C° 0.2 mm 4 mps 753 mmHg 89%
    10:00 +9°C° 0 mm 5 mps 753 mmHg 86%
    11:00 +10°C° 0 mm 5 mps 753 mmHg 82%
    12:00 +11°C° 0 mm 6 mps 752 mmHg 79%
    13:00 +11°C° 0 mm 6 mps 752 mmHg 78%
    14:00 +13°C° 0 mm 6 mps 752 mmHg 78%
    15:00 +13°C° 0 mm 6 mps 751 mmHg 78%
    16:00 +11°C° 0 mm 6 mps 751 mmHg 80%
    17:00 +11°C° 0 mm 6 mps 750 mmHg 82%
    18:00 +10°C° 0 mm 6 mps 750 mmHg 85%
    19:00 +10°C° 0 mm 7 mps 749 mmHg 84%
    20:00 +10°C° 0 mm 7 mps 748 mmHg 84%
    21:00 +10°C° 0 mm 8 mps 748 mmHg 84%
    22:00 +11°C° 0 mm 8 mps 747 mmHg 83%
    23:00 +11°C° 0 mm 9 mps 747 mmHg 81%

    22 October, Tuesday

    Time Temperature Precipitation Wind Pressure Humidity
    00:00 +11°C° 0 mm 9 mps 746 mmHg 80%
    01:00 +11°C° 0.2 mm 9 mps 746 mmHg 82%
    02:00 +11°C° 0.2 mm 8 mps 746 mmHg 83%
    03:00 +11°C° 0.2 mm 8 mps 746 mmHg 85%
    04:00 +10°C° 0.1 mm 7 mps 746 mmHg 85%
    05:00 +9°C° 0.1 mm 6 mps 746 mmHg 85%
    06:00 +9°C° 0.1 mm 6 mps 746 mmHg 85%
    07:00 +9°C° 0 mm 6 mps 747 mmHg 83%
    08:00 +8°C° 0 mm 6 mps 747 mmHg 82%
    09:00 +8°C° 0 mm 6 mps 748 mmHg 81%
    10:00 +9°C° 0 mm 6 mps 748 mmHg 78%
    11:00 +9°C° 0 mm 5 mps 748 mmHg 74%
    12:00 +10°C° 0 mm 5 mps 749 mmHg 71%
    13:00 +10°C° 0 mm 5 mps 749 mmHg 71%
    14:00 +10°C° 0 mm 4 mps 749 mmHg 70%
    15:00 +10°C° 0 mm 4 mps 749 mmHg 70%
    16:00 +9°C° 0 mm 3 mps 749 mmHg 74%
    17:00 +8°C° 0 mm 3 mps 749 mmHg 79%
    18:00 +7°C° 0 mm 3 mps 750 mmHg 83%
    19:00 +7°C° 0 mm 3 mps 750 mmHg 85%
    20:00 +7°C° 0 mm 3 mps 750 mmHg 88%
    21:00 +5°C° 0 mm 3 mps 750 mmHg 90%
    22:00 +5°C° 0 mm 3 mps 750 mmHg 91%
    23:00 +4°C° 0 mm 3 mps 750 mmHg 92%

    23 October, Wednesday

    Time Temperature Precipitation Wind Pressure Humidity
    00:00 +5°C° 0 mm 2 mps 750 mmHg 93%
    01:00 +4°C° 0 mm 2 mps 750 mmHg 93%
    02:00 +4°C° 0 mm 2 mps 750 mmHg 93%
    03:00 +3°C° 0 mm 2 mps 750 mmHg 93%
    04:00 +4°C° 0 mm 2 mps 750 mmHg 92%
    05:00 +4°C° 0 mm 2 mps 750 mmHg 90%
    06:00 +4°C° 0 mm 2 mps 750 mmHg 89%
    07:00 +4°C° 0 mm 2 mps 750 mmHg 87%
    08:00 +5°C° 0 mm 2 mps 750 mmHg 85%
    09:00 +6°C° 0 mm 2 mps 750 mmHg 82%
    10:00 +7°C° 0 mm 2 mps 750 mmHg 79%
    11:00 +8°C° 0 mm 2 mps 750 mmHg 76%
    12:00 +9°C° 0 mm 3 mps 750 mmHg 72%
    13:00 +9°C° 0 mm 2 mps 749 mmHg 74%
    14:00 +9°C° 0 mm 2 mps 749 mmHg 76%
    15:00 +9°C° 0 mm 2 mps 749 mmHg 78%
    16:00 +8°C° 0 mm 2 mps 749 mmHg 82%
    17:00 +8°C° 0 mm 2 mps 749 mmHg 86%
    18:00 +7°C° 0 mm 3 mps 749 mmHg 91%
    19:00 +7°C° 0 mm 3 mps 748 mmHg 91%
    20:00 +8°C° 0 mm 3 mps 748 mmHg 90%
    21:00 +8°C° 0 mm 3 mps 748 mmHg 90%
    22:00 +8°C° 0.1 mm 3 mps 747 mmHg 91%
    23:00 +7°C° 0.1 mm 4 mps 747 mmHg 92%

    24 October, Thursday

    Time Temperature Precipitation Wind Pressure Humidity
    00:00 +8°C° 0.1 mm 4 mps 747 mmHg 93%
    01:00 +8°C° 0 mm 4 mps 746 mmHg 94%
    02:00 +8°C° 0 mm 4 mps 746 mmHg 95%
    03:00 +8°C° 0 mm 4 mps 746 mmHg 96%
    04:00 +8°C° 0 mm 4 mps 746 mmHg 93%
    05:00 +8°C° 0 mm 4 mps 746 mmHg 90%
    06:00 +9°C° 0 mm 3 mps 746 mmHg 87%
    07:00 +8°C° 0 mm 4 mps 746 mmHg 84%
    08:00 +8°C° 0 mm 4 mps 747 mmHg 82%
    09:00 +8°C° 0 mm 4 mps 747 mmHg 80%
    10:00 +10°C° 0 mm 4 mps 747 mmHg 76%
    11:00 +11°C° 0 mm 4 mps 747 mmHg 72%
    12:00 +11°C° 0 mm 4 mps 748 mmHg 68%
    13:00 +11°C° 0 mm 4 mps 748 mmHg 69%
    14:00 +11°C° 0 mm 4 mps 748 mmHg 70%
    15:00 +11°C° 0 mm 4 mps 748 mmHg 71%
    16:00 +10°C° 0 mm 3 mps 748 mmHg 73%
    17:00 +9°C° 0 mm 3 mps 748 mmHg 75%
    18:00 +9°C° 0 mm 2 mps 748 mmHg 77%
    19:00 +9°C° 0 mm 2 mps 749 mmHg 79%
    20:00 +8°C° 0 mm 2 mps 749 mmHg 80%
    21:00 +8°C° 0 mm 2 mps 749 mmHg 81%
    22:00 +8°C° 0 mm 2 mps 749 mmHg 82%
    23:00 +8°C° 0 mm 2 mps 749 mmHg 83%
    Show more